Weather History for Scottsdale, AZ

Change the Weather History Date:

Tuesday, May 14, 2013

  Actual Average Record
Temperature  
Mean Temperature 88 °F -  
Max Temperature 98 °F 90 °F 100 °F (2006)
Min Temperature 78 °F 65 °F 53 °F (1998)
Cooling Degree Days 23    
Growing Degree Days 38 (Base 50)    
Moisture  
Dew Point 33 °F    
Average Humidity 14    
Maximum Humidity 22    
Minimum Humidity 9    
Precipitation  
Precipitation 0.00 in - - ()
Sea Level Pressure  
Sea Level Pressure 29.81 in    
Wind  
Wind Speed 5 mph (SSW)    
Max Wind Speed 9 mph    
Max Gust Speed 16 mph    
Visibility 10 miles    
Events      
Averages and records for this station are not official NWS values.
T = Trace of Precipitation, MM = Missing Value Source: NWS Daily Summary

Daily Weather History Graph

Daily Weather History Graph

Search for Another Location

Airport:

Trip Planner

Search our weather history database for the weather conditions in past years. The results will help you decide how hot, cold, wet, or windy it might be!

Date:

Astronomy

May. 14, 2013 Rise Set
Actual Time 5:27 AM MST 7:20 PM MST
Civil Twilight 5:00 AM MST 7:48 PM MST
Nautical Twilight 4:26 AM MST 8:21 PM MST
Astronomical Twilight 3:51 AM MST 8:57 PM MST
Moon 9:10 AM MST (5/14) 11:12 PM MST (5/14)
Length of Visible Light 14h 48m
Length of Day
13h 53m
Waxing Crescent, 19% of the Moon is Illuminated
May 14
Waxing Crescent
May 17
First Quarter
May 24
Full
May 31
Last Quarter
Jun 8
New

Hourly Weather History & Observations

Time (MST) Temp. Dew Point Humidity Pressure Visibility Wind Dir Wind Speed Gust Speed Precip Events Conditions
12:53 AM 82.0 °F 39.0 °F 22% 29.82 in 10.0 mi Calm Calm - N/A   Clear
1:53 AM 81.0 °F 37.9 °F 21% 29.82 in 10.0 mi Calm Calm - N/A   Clear
2:53 AM 80.1 °F 37.0 °F 21% 29.82 in 10.0 mi SSE 3.5 mph - N/A   Clear
3:53 AM 78.1 °F 33.1 °F 19% 29.83 in 10.0 mi SSE 4.6 mph - N/A   Clear
4:53 AM 79.0 °F 26.1 °F 14% 29.83 in 10.0 mi ESE 9.2 mph - N/A   Clear
5:53 AM 78.1 °F 28.9 °F 17% 29.86 in 10.0 mi ESE 5.8 mph - N/A   Clear
6:53 AM 80.1 °F 32.0 °F 17% 29.88 in 10.0 mi Variable 4.6 mph - N/A   Clear
7:53 AM 84.0 °F 32.0 °F 15% 29.89 in 10.0 mi SSE 6.9 mph - N/A   Clear
8:53 AM 87.1 °F 32.0 °F 14% 29.89 in 10.0 mi SE 8.1 mph - N/A   Clear
9:53 AM 89.1 °F 32.0 °F 13% 29.89 in 10.0 mi South 8.1 mph - N/A   Clear
10:53 AM 90.0 °F 32.0 °F 13% 29.88 in 10.0 mi SE 5.8 mph - N/A   Clear
11:53 AM 93.0 °F 32.0 °F 12% 29.85 in 10.0 mi SE 6.9 mph - N/A   Clear
12:53 PM 93.9 °F 33.1 °F 12% 29.83 in 10.0 mi SSW 4.6 mph - N/A   Clear
1:53 PM 97.0 °F 32.0 °F 10% 29.80 in 10.0 mi Variable 5.8 mph - N/A   Clear
2:53 PM 98.1 °F 30.9 °F 9% 29.76 in 10.0 mi West 9.2 mph - N/A   Clear
3:53 PM 98.1 °F 30.9 °F 9% 29.74 in 10.0 mi Variable 6.9 mph - N/A   Clear
4:53 PM 98.1 °F 30.9 °F 9% 29.73 in 10.0 mi West 8.1 mph 16.1 mph N/A   Clear
5:53 PM 98.1 °F 32.0 °F 10% 29.72 in 10.0 mi WSW 9.2 mph - N/A   Clear
6:53 PM 97.0 °F 30.9 °F 10% 29.71 in 10.0 mi WSW 9.2 mph - N/A   Clear
7:53 PM 93.9 °F 32.0 °F 11% 29.72 in 10.0 mi WSW 4.6 mph - N/A   Clear
8:53 PM 93.0 °F 34.0 °F 12% 29.74 in 10.0 mi WSW 6.9 mph - N/A   Clear
9:53 PM 91.0 °F 34.0 °F 13% 29.77 in 10.0 mi WSW 6.9 mph - N/A   Clear
10:53 PM 89.1 °F 36.0 °F 15% 29.78 in 10.0 mi West 9.2 mph - N/A   Clear
11:53 PM 87.1 °F 35.1 °F 16% 29.80 in 10.0 mi West 6.9 mph - N/A   Clear